カタログに戻る

NASBSAT-2

運用中科学SSO
NORAD 67285·PAYLOAD·🇧🇾 Belarus
この衛星名は、まだ公式ソースで確認されていません。

打ち上げ Dec 28, 2025 から Vostochny Cosmodrome

Loading…

次のパス (今後24時間)

TLE

最新Source: Space-Track

元期: Sep 14, 2026, 10:51 UTC

1 67285U 25313AP  26257.45259590  .00004742  00000-0  19454-3 0  9996
2 67285  97.3848 331.0017 0011124  52.6935 307.5315 15.24669663 39568

AllMySatでNASBSAT-2をリアルタイム追跡

Download on the App Store